This is the latest recevied weather packets stored in our database for station/object IU1DOF-3. If no packets are shown the sender has not sent any weather packets the latest 1 day(s).
| Time | Temp. | Humidity | Pressure | Rain* | Wind** | Luminosity | Snow |
|---|---|---|---|---|---|---|---|
| 1778047125 | 8.33° C | 99% | 1007 hPa | 0 mm | - | - | - |
| 1778046507 | 7.78° C | 99% | 1007 hPa | 0 mm | - | - | - |
| 1778045259 | 7.78° C | 99% | 1007.4 hPa | 0 mm | - | - | - |
| 1778044636 | 7.78° C | 99% | 1007 hPa | 0 mm | - | - | - |
| 1778044012 | 7.78° C | 99% | 1007 hPa | 0 mm | - | - | - |
| 1778042780 | 7.22° C | 99% | 1007.2 hPa | 0 mm | - | - | - |
| 1778042155 | 7.22° C | 99% | 1007.2 hPa | 0 mm | - | - | - |
| 1778041540 | 7.22° C | 99% | 1007.1 hPa | 0 mm | - | - | - |
| 1778040924 | 7.22° C | 99% | 1007.3 hPa | 0 mm | - | - | - |
| 1778040299 | 7.22° C | 99% | 1007.3 hPa | 0 mm | - | - | - |
| 1778039680 | 7.22° C | 99% | 1007.6 hPa | 0 mm | - | - | - |
| 1778039068 | 7.22° C | 99% | 1007.7 hPa | 1.02 mm | - | - | - |
| 1778037195 | 7.78° C | 99% | 1007.7 hPa | 4.57 mm | - | - | - |
| 1778036572 | 7.78° C | 99% | 1007.9 hPa | 4.06 mm | - | - | - |
| 1778035960 | 7.78° C | 99% | 1008.1 hPa | 2.79 mm | - | - | - |
| 1778035340 | 8.33° C | 99% | 1007.9 hPa | 0 mm | - | - | - |
| 1778034715 | 8.33° C | 99% | 1008.2 hPa | 0 mm | - | - | - |
| 1778034100 | 8.33° C | 99% | 1008 hPa | 1.78 mm | - | - | - |
| 1778033483 | 8.33° C | 99% | 1008.1 hPa | 1.02 mm | - | - | - |
| 1778032860 | 8.33° C | 99% | 1008 hPa | 1.78 mm | - | - | - |
| 1778032240 | 8.33° C | 99% | 1008.5 hPa | 0 mm | - | - | - |
| 1778030379 | 8.33° C | 99% | 1008.6 hPa | 0 mm | - | - | - |
| 1778029755 | 8.89° C | 99% | 1008.5 hPa | 0 mm | - | - | - |
| 1778028520 | 8.89° C | 99% | 1008.8 hPa | 0 mm | - | - | - |
| 1778027900 | 8.89° C | 99% | 1008.9 hPa | 0 mm | - | - | - |
* Rain latest hour (hover to see other rain measurements)
** Current wind speed in m/s (hover to see current wind gust speed)